SCOUT G-1 DEB, 43330

Orbit data source: Space-Track

SCOUT G-1 DEB, 43330 is space debris in LEO originally from a launch on Tue, 26 Apr 1988 UTC launched from the Air Force Western Test Range (AFWTR). Debris objects in space refer to the collection of defunct objects orbiting the Earth. Examples of debris include non-operational satellites, rocket bodies, and fragments generated from explosions, collisions, or faulty payload assembly.

Loading next visibility...
Identifier
43330, 1988-033L
Orbit
LEO
Country
Flag of USUS
Related business
Manufacturer
Unknown
Mission
Spacecraft
Bus & Motor
Unknown
Mass
Unknown
Launch date (UTC)
1988-04-26 (38 years ago)
Launch vehicle
Unknown
Launch site
Air Force Western Test Range (AFWTR)
Object type
Payload
Rocket body
Debris
Shape & HBR
Unknown shape, 0.1 m
Radar Cross Section
Medium (>0.1 m² and <1 m²)

Expand to show TLE details & history
Last TLE update: 5 months ago

TLE from 5 months ago
0 SCOUT G-1 DEB
1 43330U 88033L   26027.20756059  .00000986  00000-0  18159-2 0  9995
2 43330  90.3156  14.0677 0190079   6.3190 354.0283 13.32764770640813
Epoch: 2026-01-27T04:58Z
TLE epoch observation values (Epoch: 2026-01-27T04:58:53.234Z)
Latitude
-0.00006°
Longitude
172.85362°
Altitude
997.225 km
Speed
7.422 km/s
True Right ascension
00h 56m 16s
True Declination
0° 00' 00"
Sunlit
Object was in daylight at epoch
Visualization orbit readout
Latitude
Unknown
Longitude
Unknown
Altitude
Unknown
Speed
Unknown
Apparent Right ascension
Unknown
Apparent Declination
Unknown
Sunlit
N/A
Visualization observer readout
Local Sidereal Time
21:25:17
Azimuth
Unknown
Elevation
Unknown
Doppler factor
Unknown
Orbital elements
Apogee altitude
1,276.206 km
Perigee altitude
990.648 km
Semi-major axis
7,511.564 km
Eccentricity
0.01901
Inclination
90.3156°
RAAN
14.0677°
Arg. of periapsis
6.319°
True anomaly
353.79621°
Mean anomaly
354.0283°
Eccentric anomaly
353.91281°
Mean motion
3.33386 °/min
Orbital period
107.98 mins
BSTAR
0.0018159
Loading maneuver chart data...
Computing Atmospheric mass density...
Loading historical data...
Loading historical data...
Loading historical data...
Loading historical data...
Loading historical data...
Loading historical data...
Loading historical data...

Documentation

Showing up to 5 results
|